EHI
0 0 0 0 0 0 0 0 0 0 0 0 0 0 1 4 6 6 7 7 5 4 3 3 4 5 4 1 3 9 13 12 9 5 3 2 1 0 0 0 0 0 0 0
0 0 0 0 0 0 0 0 0 0 0 0 0 0 1 3 5 6 6 6 6 6 5 4 5 6 4 2 3 8 11 10 6 4 3 2 1 0 0 0 0 0 0 0
0 0 0 0 0 0 0 0 0 0 0 0 0 0 1 2 5 6 5 5 6 6 7 6 6 5 4 3 4 6 8 7 4 2 3 2 1 0 0 0 0 0 0 0
0 0 0 0 0 0 0 0 0 0 0 0 0 0 1 1 3 5 5 4 4 5 6 6 5 4 3 4 4 5 7 6 3 1 1 1 0 0 0 0 0 0 0 0
0 0 0 0 0 0 0 0 0 0 0 0 0 0 0 1 2 2 3 4 3 3 5 5 4 3 2 4 4 5 7 7 3 1 0 0 0 0 0 0 0 0 0 0
0 0 0 0 0 0 0 0 0 0 0 0 0 0 0 0 0 0 2 3 3 3 4 4 3 3 2 3 3 4 5 5 3 2 1 0 0 0 0 0 0 0 0 0
0 0 0 0 0 0 0 0 0 0 0 0 0 0 0 0 0 0 0 1 3 4 4 3 3 4 4 3 3 3 4 4 4 3 2 1 0 1 1 0 0 0 0 0
0 0 0 0 0 0 0 0 0 0 0 0 0 0 0 0 0 0 0 0 1 3 4 4 4 5 5 4 3 2 3 5 6 6 5 3 2 1 1 0 0 0 0 0
0 0 0 0 0 0 0 0 0 0 0 0 0 0 0 0 0 0 0 0 1 2 3 3 4 5 4 3 1 1 3 6 8 7 7 6 5 5 3 1 0 0 0 0
0 0 0 0 0 0 0 0 0 0 0 0 0 0 0 0 0 0 0 0 0 1 1 1 2 3 2 1 1 1 3 6 7 7 7 6 7 9 8 4 2 1 1 1
0 0 0 0 0 0 0 0 0 0 0 0 0 0 0 0 0 0 0 0 0 0 0 0 1 1 1 1 2 3 4 6 7 7 8 9 10 12 11 8 5 5 4 3
0 0 0 0 0 0 0 0 0 0 0 0 0 0 0 0 0 0 0 0 0 0 0 0 0 0 0 0 2 4 5 6 7 10 14 16 18 18 15 10 7 7 5 4
0 0 0 0 0 0 0 0 0 0 0 0 0 0 0 0 0 0 0 0 0 1 2 2 2 2 2 2 3 4 4 5 8 14 21 26 29 29 23 14 10 9 7 5
0 0 0 0 0 0 0 0 0 0 0 0 0 0 0 0 0 0 0 1 2 4 7 9 9 8 7 7 8 8 8 9 12 18 27 35 38 38 31 23 16 11 7 5
0 0 0 0 0 0 0 0 0 0 0 0 0 0 0 0 0 0 1 2 4 7 10 13 13 12 11 12 12 13 16 19 23 25 29 35 38 38 34 28 21 13 6 3
0 0 0 0 0 0 0 0 0 0 0 0 0 1 2 1 1 1 2 4 6 7 8 8 10 11 11 11 10 13 19 25 30 31 30 30 32 33 32 27 19 11 5 2
0 0 0 0 0 0 0 0 0 0 0 0 0 2 4 4 3 2 3 5 6 5 5 4 6 8 9 7 7 11 18 25 31 32 30 28 28 28 25 20 14 9 4 3
0 0 0 0 0 0 0 0 0 0 0 0 1 3 5 5 3 3 4 6 6 5 4 4 5 7 8 7 8 12 18 24 27 28 26 24 23 20 17 14 10 7 6 5
0 0 0 1 0 0 0 0 0 0 0 0 1 3 4 4 2 1 3 5 6 6 5 5 4 6 8 8 8 12 17 20 20 18 17 15 12 10 10 9 7 6 7 7
0 0 0 0 0 0 0 0 0 0 0 0 0 1 3 3 1 1 2 3 4 4 5 5 4 5 6 6 7 8 10 11 10 8 7 6 5 5 5 5 5 6 7 7
0 0 0 0 0 0 0 0 0 0 0 0 0 1 2 4 3 2 1 2 2 2 3 4 4 4 4 4 6 6 5 4 3 2 1 1 2 3 3 4 5 5 5 4
0 0 0 0 0 0 0 0 0 0 0 0 0 2 3 5 4 1 1 1 1 0 1 2 2 2 2 3 5 5 4 2 0 0 0 0 0 1 1 3 5 5 4 3
0 0 0 0 0 0 0 0 0 0 0 0 0 2 3 3 1 0 0 1 1 1 0 1 1 1 1 2 2 3 3 1 0 0 0 0 0 0 0 1 3 3 3 2
0 0 0 0 0 0 0 0 0 0 0 0 1 1 1 0 0 0 0 1 1 1 0 0 0 0 0 0 0 1 1 0 0 0 0 0 0 0 0 0 1 1 1 1
0 0 0 0 0 0 0 0 0 1 1 1 1 1 1 0 0 0 0 0 0 0 0 0 0 0 0 0 0 0 0 0 0 0 0 0 0 0 0 0 0 0 1 1
0 0 0 0 0 0 0 0 0 1 2 2 1 1 1 1 0 0 0 0 0 0 0 0 0 0 0 0 0 0 0 0 0 0 0 0 0 0 0 0 0 0 1 0
Wind_Speed
6 9 7 5 7 9 11 11 10 6 2 6 6 6 2 5 7 7 8 9 10 9 9 9 9 10 10 10 10 10 10 10 8 7 7 7 7 6 5 5 5 4 3 3
9 10 5 6 7 9 9 10 8 3 0 6 6 6 2 6 7 7 9 9 10 11 10 11 11 10 11 11 11 11 11 11 10 8 6 5 6 5 5 4 5 5 4 3
13 6 3 7 9 9 8 8 9 8 3 6 7 4 5 6 7 8 8 9 10 11 12 13 13 12 11 11 12 11 11 12 11 10 7 6 5 5 5 6 5 5 5 3
10 6 6 9 9 9 8 5 6 6 8 3 4 4 6 5 7 9 10 10 10 10 11 12 13 13 12 12 11 11 11 11 11 10 9 10 8 6 6 5 5 6 6 5
9 6 8 11 8 7 5 3 5 6 7 6 1 6 5 5 5 8 10 11 11 11 12 12 13 13 13 13 12 12 12 11 11 10 10 9 8 6 5 5 6 6 6 6
14 9 8 7 3 3 2 4 6 7 7 3 5 6 3 2 1 3 8 11 12 12 11 12 12 12 12 13 12 12 12 12 11 11 11 11 9 7 6 7 6 7 6 6
13 11 7 6 6 5 7 8 6 4 3 4 3 5 5 4 1 2 6 10 12 12 12 12 13 13 13 14 14 13 13 13 13 12 12 11 10 9 9 8 7 7 5 6
12 10 8 7 7 4 5 8 7 8 8 6 2 3 5 4 2 2 5 10 12 13 13 13 14 14 14 15 15 14 14 14 13 13 12 11 10 9 7 8 7 7 5 5
10 7 4 3 3 5 5 6 6 8 8 7 2 1 4 4 4 5 7 10 12 13 14 14 15 15 15 15 15 15 14 14 14 14 13 11 11 10 8 8 8 7 6 5
10 9 6 6 6 3 6 5 4 7 7 7 4 2 2 4 4 6 7 9 11 13 13 14 14 15 15 15 15 15 15 15 14 14 12 10 11 11 10 9 9 8 8 7
11 11 7 7 8 7 6 6 6 6 6 8 6 3 6 3 3 5 7 9 10 12 13 14 14 14 15 15 15 15 15 14 13 13 13 12 11 11 11 10 10 10 9 9
10 9 8 7 2 3 7 7 7 7 6 6 8 2 8 4 3 3 4 6 8 10 11 13 13 14 14 14 15 15 14 14 14 13 13 12 12 11 11 12 11 11 11 10
8 7 8 7 7 8 8 7 7 7 6 7 8 1 8 5 3 2 2 4 6 8 10 11 12 12 13 13 13 14 14 14 14 13 13 13 13 13 13 12 12 11 11 11
6 7 10 9 4 4 7 8 8 9 8 7 8 5 2 1 2 2 1 2 4 7 8 9 10 10 10 11 11 12 13 13 13 13 13 13 13 13 13 12 12 12 12 12
6 9 9 9 5 5 7 8 9 11 11 11 8 6 2 4 4 3 2 2 4 5 6 7 8 8 8 8 9 10 10 10 11 11 12 12 11 11 11 11 11 11 12 12
6 7 8 9 8 8 9 10 11 11 11 11 10 7 5 5 4 4 4 4 4 4 4 4 5 5 5 6 6 7 7 8 8 9 10 9 9 9 10 10 10 10 11 11
8 7 8 9 6 8 11 10 10 10 8 9 9 1 6 5 6 6 5 5 6 5 4 4 3 2 2 2 2 3 3 3 4 5 4 5 5 6 7 7 8 9 10 10
7 8 7 7 6 12 2 2 3 6 6 5 2 4 6 9 9 9 7 7 8 7 7 7 6 7 6 5 6 5 5 4 4 3 2 1 2 3 3 5 6 6 7 8
4 6 7 8 10 10 3 3 3 5 4 2 4 8 11 13 12 11 9 9 9 9 9 9 9 10 9 9 9 9 9 7 7 6 5 4 2 1 0 2 3 4 5 7
5 6 8 8 9 8 1 5 2 4 5 5 7 11 13 12 6 8 8 9 10 10 10 11 11 12 12 11 10 12 11 9 8 8 7 6 5 3 2 2 2 2 3 5
8 7 10 10 9 5 6 5 5 5 3 7 8 10 10 5 7 12 10 10 10 10 11 11 12 12 11 10 10 12 11 10 8 7 7 6 6 4 4 3 3 3 3 4
6 7 7 6 8 2 7 4 2 5 4 6 8 8 9 13 15 14 12 11 10 10 10 11 11 11 10 10 10 11 10 8 7 7 7 8 7 6 5 5 4 4 5 5
3 3 2 2 1 6 2 1 4 2 4 6 8 11 14 15 15 14 13 11 10 10 9 9 10 11 9 8 8 9 7 6 7 7 7 7 6 6 5 5 5 4 4 5
4 1 2 2 1 2 1 0 1 1 4 7 10 13 15 16 15 14 12 11 10 9 8 8 9 9 8 7 7 7 6 6 6 6 5 4 4 5 5 5 5 6 6 6
1 3 3 4 1 0 2 2 3 6 8 11 12 13 14 16 15 13 11 10 9 8 7 6 7 7 7 6 6 6 6 5 5 5 5 5 5 5 5 5 5 6 6 6
3 3 4 3 3 2 3 3 6 10 12 14 15 15 14 14 14 13 10 9 8 7 6 6 6 5 5 5 5 5 5 4 5 5 5 6 6 6 6 7 6 3 5 6
Wind_Direction
220 249 259 313 317 310 307 306 313 335 351 276 278 286 245 183 199 191 180 178 180 182 184 184 185 180 172 173 173 173 171 165 165 162 165 162 162 163 158 150 139 145 129 110
239 244 281 308 296 285 288 295 316 338 306 281 296 284 224 196 201 198 191 187 182 179 184 186 186 179 178 177 178 175 173 170 176 171 169 167 159 170 159 153 150 166 157 152
250 277 316 287 290 297 301 308 328 328 300 227 283 222 167 181 196 199 200 196 191 187 184 183 187 184 182 179 181 178 174 177 180 169 168 160 160 174 170 175 176 179 177 172
253 266 268 282 296 306 308 349 310 299 290 332 314 317 141 176 197 202 199 198 199 193 187 184 186 185 185 184 179 178 177 178 175 176 183 182 187 186 182 186 174 177 187 187
241 245 273 287 310 307 327 336 284 281 285 286 271 300 97 169 208 203 199 197 197 192 189 186 186 184 183 179 178 178 179 181 179 187 191 197 202 195 181 183 171 194 188 196
262 270 276 284 314 296 195 228 231 236 251 293 26 309 39 73 304 192 186 189 191 188 185 183 181 179 177 177 178 179 182 183 184 191 197 207 206 202 194 196 189 201 193 198
239 237 223 230 226 187 227 269 276 267 267 18 63 290 28 50 48 186 175 179 183 184 182 179 179 178 179 182 182 183 184 186 189 194 201 206 208 206 207 209 203 213 205 200
240 236 205 206 248 275 251 283 300 316 329 338 179 323 51 86 108 160 169 168 175 180 182 183 182 182 184 185 186 186 188 190 192 197 203 207 208 214 215 213 218 211 221 213
244 238 154 188 238 269 251 261 312 290 285 286 330 11 129 136 155 163 166 169 176 183 184 186 186 186 187 187 189 191 192 195 198 200 201 205 209 219 223 210 216 218 213 206
250 257 209 167 187 193 290 287 257 279 298 300 306 294 56 135 158 166 176 179 178 182 186 187 188 189 189 190 190 194 197 200 201 202 204 205 208 212 216 218 216 217 210 207
235 246 224 201 229 236 201 221 258 276 293 298 307 360 70 97 151 172 180 185 184 186 187 187 188 190 190 190 191 195 199 202 204 206 207 211 210 210 211 216 216 211 211 204
213 236 243 228 198 286 254 252 241 264 271 266 291 354 100 98 126 161 169 179 187 190 189 187 187 188 191 193 194 196 201 204 206 207 208 211 213 212 213 216 216 211 210 209
176 212 228 212 195 202 227 227 238 256 269 267 276 354 117 119 114 124 172 179 185 188 189 187 186 189 192 196 199 201 204 208 209 207 210 213 214 214 216 218 214 211 210 212
196 224 246 261 270 207 217 217 221 239 257 266 268 289 183 106 77 80 129 177 185 183 184 188 187 191 197 200 205 209 211 212 212 211 212 215 217 217 216 215 212 210 209 211
209 227 237 255 258 247 245 237 225 237 261 277 288 288 336 53 47 57 87 140 153 161 171 182 189 191 198 203 209 213 217 217 216 216 218 220 221 219 218 215 214 212 212 216
210 238 234 238 233 239 248 246 240 243 256 263 272 278 70 79 78 75 80 100 118 130 142 155 171 181 191 203 213 217 219 216 211 217 223 224 221 217 216 217 216 214 216 222
193 213 228 240 218 238 245 243 243 240 245 258 269 5 116 107 82 68 69 80 80 81 85 98 108 109 122 159 182 195 203 195 189 201 216 215 215 215 216 218 219 221 223 224
202 214 231 244 226 248 285 73 269 259 254 255 256 121 123 112 99 77 66 76 77 73 72 68 72 77 78 85 96 97 99 107 117 120 126 144 198 213 215 224 231 234 235 234
211 207 233 243 242 253 199 168 214 243 241 196 172 143 136 134 125 88 69 72 76 75 71 70 68 73 72 73 81 85 81 81 83 80 75 71 74 87 186 237 252 251 250 249
182 215 235 234 253 258 149 114 147 243 217 138 157 158 159 175 166 107 94 86 81 79 77 76 75 73 71 69 75 81 79 74 68 63 60 57 55 51 38 6 324 299 275 268
186 203 228 235 245 252 94 124 191 240 69 130 159 163 172 166 89 114 115 101 94 89 86 83 78 72 66 67 71 74 72 65 62 64 64 60 53 48 37 23 7 337 313 301
207 206 216 232 243 211 114 162 255 40 94 147 156 155 134 113 114 120 119 112 105 98 92 87 84 79 71 67 71 71 64 61 61 60 56 51 42 29 32 24 7 350 328 304
244 308 264 249 34 74 117 64 56 69 133 146 146 135 133 130 128 126 122 116 110 104 97 93 92 86 76 69 69 71 63 58 60 58 51 43 37 29 19 5 352 334 324 314
182 229 260 249 133 103 127 172 142 152 146 138 135 137 138 134 133 130 126 122 116 109 104 99 94 90 84 73 68 69 62 57 57 51 41 31 21 12 12 343 339 335 331 328
334 203 239 243 308 191 100 83 127 128 131 130 132 134 134 132 131 129 126 123 118 112 102 97 93 91 85 75 66 59 52 42 39 33 19 7 5 4 341 336 332 324 329 336
357 316 294 331 28 346 65 109 136 136 133 132 132 130 130 130 129 127 124 123 121 115 110 103 93 85 76 68 63 54 43 30 14 7 2 351 346 346 331 327 321 283 275 264